[[{"header":{"parameterUnit":"m.s-1","parameterCategory":1,"la1":30.2991,"la2":30.254,"lo1":-89.0895,"lo2":-89.0444,"dy":0.0017,"dx":0.0017,"nx":28,"ny":28,"refTime":"2024-04-14T03:00:00:Z","depth":0,"parameterNumber":2,"parameterNumberName":"U-component_of_WINDS"},"data":[0,0,0,0,0,0,0,0,0,0,0,0,0,0,0,0,0,0,0,0,0,0,0,0,0,0,0,0,0,0,0,0,0,0,0,0,0,0,0,0,0,0,0,0,0,0,0,0,0,0,0,0,0,0,0,0,0,0,-2.4773,-2.4772,0,-2.4677,-2.4676,-2.4675,-2.4613,-2.4612,-2.4612,-2.4612,-2.4511,-2.4509,-2.4507,0,0,0,0,0,0,0,0,0,0,0,0,0,-2.4898,-2.4896,-2.4773,-2.4771,-2.477,-2.4678,-2.4676,-2.4675,-2.4613,-2.4612,-2.4612,-2.4612,-2.4512,-2.4509,-2.4507,0,0,0,0,0,0,0,0,0,0,0,0,0,-2.4827,-2.4895,-2.4773,-2.4728,-2.4723,-2.4678,-2.4676,-2.4675,-2.4613,-2.4612,-2.4612,-2.4611,-2.4513,-2.451,-2.4506,-2.4497,0,0,-2.4496,-2.4494,0,0,0,0,0,0,0,0,-2.4831,-2.4823,-2.4736,-2.4731,-2.4726,-2.4656,-2.4684,-2.4615,-2.4613,-2.4655,-2.4612,-2.4611,-2.456,-2.4553,-2.4536,-2.4492,-2.4488,-2.4495,-2.4493,-2.4492,-2.4491,0,0,0,0,0,0,0,-2.4836,-2.4826,-2.4735,-2.4735,-2.4728,-2.4712,-2.4701,-2.467,-2.4612,-2.4651,-2.4646,-2.4636,-2.4557,-2.4539,-2.4533,-2.4486,-2.4495,-2.4492,-2.449,-2.4489,-2.4429,-2.4429,0,0,0,0,0,0,-2.4849,-2.4831,-2.4738,-2.4732,-2.4778,-2.471,-2.4698,-2.4679,-2.4612,-2.4601,-2.4637,-2.4634,-2.4546,-2.4537,-2.4529,-2.4512,-2.4492,-2.4489,-2.4487,-2.4428,-2.4429,-2.4429,0,0,0,0,0,0,-2.4851,-2.4841,-2.4742,-2.478,-2.4766,-2.4709,-2.4688,-2.4678,-2.466,-2.4601,-2.459,-2.463,-2.4545,-2.4534,-2.4505,-2.4508,-2.4487,-2.4484,-2.4428,-2.4429,-2.4429,-2.448,0,0,0,0,0,0,-2.4855,-2.4842,-2.4839,-2.4781,-2.4764,-2.472,-2.4688,-2.4676,-2.4655,-2.465,-2.4592,-2.4581,-2.4544,-2.4511,-2.4502,-2.4503,-2.4481,-2.4427,-2.4428,-2.4429,-2.4478,-2.4482,-2.4486,0,0,0,0,0,-2.486,-2.4856,-2.4839,-2.4828,-2.4759,-2.4721,-2.4711,-2.4668,-2.4655,-2.465,-2.4613,-2.4583,-2.451,-2.4508,-2.4498,-2.4498,-2.4427,-2.4428,-2.4429,-2.4476,-2.4481,-2.4486,0,0,0,0,0,0,-2.4915,-2.4848,-2.4828,-2.4805,-2.4769,-2.471,-2.4703,-2.4676,-2.4642,-2.4639,-2.4586,-2.4574,-2.455,-2.4521,-2.4521,-2.4485,-2.4465,-2.4464,-2.4504,-2.4509,-2.4513,-2.452,-2.4478,0,0,0,0,0,-2.4925,-2.4901,-2.4843,-2.4829,-2.4812,-2.4761,-2.4742,-2.4713,-2.4673,-2.4657,-2.4617,-2.4578,-2.4546,-2.4526,-2.4494,-2.4474,-2.446,-2.4469,-2.4473,-2.4477,-2.4476,-2.4462,-2.4465,-2.4433,-2.4433,-2.4433,0,0,-2.4945,-2.4905,-2.4892,-2.4839,-2.4807,-2.4782,-2.4748,-2.4723,-2.4703,-2.4653,-2.4622,-2.4592,-2.4546,-2.4521,-2.4508,-2.4496,-2.4482,-2.4479,-2.4482,-2.4479,-2.4464,-2.4467,-2.4469,-2.4434,-2.4434,-2.4433,0,0,-2.4967,-2.4935,-2.4919,-2.4889,-2.4842,-2.4808,-2.4804,-2.4749,-2.4727,-2.4697,-2.4658,-2.4634,-2.4581,-2.4549,-2.4526,-2.4537,-2.4508,-2.4528,-2.4549,-2.4536,-2.4538,-2.454,-2.4543,-2.4544,-2.4527,-2.4527,-2.4528,0,-2.4996,-2.4957,-2.4914,-2.4891,-2.4868,-2.4823,-2.4805,-2.4778,-2.4722,-2.4707,-2.4695,-2.4627,-2.4593,-2.4559,-2.4562,-2.4546,-2.4538,-2.4533,-2.4542,-2.4543,-2.4544,-2.4546,-2.4547,-2.453,-2.453,-2.453,-2.4529,0,-2.4995,-2.4969,-2.4962,-2.491,-2.4886,-2.4866,-2.4819,-2.48,-2.4773,-2.4741,-2.471,-2.4667,-2.4625,-2.4615,-2.4588,-2.4578,-2.4572,-2.4552,-2.453,-2.4551,-2.4551,-2.4552,-2.4534,-2.4533,-2.4532,-2.4531,0,0,-2.5048,-2.4973,-2.4971,-2.4947,-2.4892,-2.487,-2.4848,-2.4808,-2.4792,-2.4756,-2.4735,-2.4691,-2.4672,-2.4646,-2.4615,-2.4604,-2.4614,-2.4585,-2.4583,-2.459,-2.4598,-2.4612,-2.4613,-2.4595,-2.4595,-2.4595,-2.4601,0,-2.506,-2.5018,-2.4979,-2.4951,-2.4925,-2.4882,-2.4862,-2.4826,-2.4796,-2.4769,-2.4734,-2.4703,-2.4682,-2.4666,-2.4653,-2.4615,-2.4614,-2.4615,-2.4573,-2.4572,-2.4584,-2.4614,-2.4628,-2.4635,-2.4601,-2.4601,-2.4601,0,-2.5068,-2.5034,-2.5004,-2.4952,-2.4939,-2.4922,-2.4882,-2.4857,-2.4815,-2.4793,-2.4765,-2.4733,-2.4706,-2.469,-2.4651,-2.4653,-2.4634,-2.4613,-2.4612,-2.4605,-2.4587,-2.4605,-2.4637,-2.4637,-2.4601,-2.4601,-2.4601,0,-2.5107,-2.5054,-2.5029,-2.501,-2.4948,-2.4937,-2.4911,-2.4869,-2.4847,-2.4812,-2.4796,-2.4759,-2.4737,-2.4708,-2.4666,-2.4658,-2.4632,-2.4612,-2.4612,-2.4613,-2.4606,-2.4607,-2.4633,-2.4598,-2.4598,-2.4598,-2.4598,0,-2.5124,-2.5106,-2.5045,-2.503,-2.5008,-2.4964,-2.4944,-2.4914,-2.4876,-2.4853,-2.4815,-2.4793,-2.4741,-2.4713,-2.468,-2.4653,-2.4644,-2.4624,-2.4615,-2.4627,-2.4629,-2.4612,-2.4609,-2.4598,-2.4598,-2.4598,-2.4598,0,-2.5162,-2.5121,-2.509,-2.5036,-2.5021,-2.5008,-2.496,-2.4943,-2.4911,-2.4882,-2.4872,-2.4821,-2.4786,-2.4743,-2.4694,-2.4672,-2.4647,-2.4635,-2.4662,-2.4656,-2.4658,-2.4657,-2.4672,-2.4671,-2.4639,-2.464,-2.464,0,-2.5175,-2.516,-2.5104,-2.5086,-2.5061,-2.5033,-2.5011,-2.4966,-2.4944,-2.4896,-2.4884,-2.4847,-2.4814,-2.4761,-2.4719,-2.4681,-2.4666,-2.4674,-2.466,-2.4672,-2.4664,-2.4665,-2.4662,-2.4677,-2.4678,-2.4678,-2.4679,0,-2.52,-2.518,-2.515,-2.5113,-2.5087,-2.5056,-2.5022,-2.5009,-2.4958,-2.4935,-2.49,-2.4875,-2.4826,-2.4789,-2.4746,-2.4718,-2.4689,-2.4684,-2.4681,-2.4691,-2.4707,-2.4696,-2.4669,-2.4683,-2.4682,-2.4682,-2.4682,-2.4682,-2.5224,-2.5209,-2.5167,-2.5134,-2.5105,-2.5074,-2.5055,-2.5021,-2.4991,-2.4947,-2.4923,-2.4888,-2.4846,-2.4786,-2.4759,-2.4731,-2.472,-2.4717,-2.4716,-2.4715,-2.4718,-2.4713,-2.4723,-2.4723,-2.4723,-2.4723,-2.4722,0,-2.5245,-2.5217,-2.5187,-2.5142,-2.5116,-2.5093,-2.5055,-2.5034,-2.5004,-2.4968,-2.4938,-2.4897,-2.4861,-2.4817,-2.4778,-2.4763,-2.4749,-2.4754,-2.4754,-2.4747,-2.4731,-2.4736,-2.4766,-2.4766,-2.4766,-2.4766,-2.4766,-2.4766,-2.5254,-2.5226,-2.5202,-2.5159,-2.513,-2.5096,-2.5076,-2.5048,-2.5019,-2.4975,-2.4945,-2.4917,-2.4877,-2.4835,-2.4801,-2.4789,-2.4775,-2.4784,-2.4768,-2.4753,-2.4749,-2.4745,-2.4749,-2.4782,-2.4782,-2.4786,-2.4786,-2.4786]},{"header":{"parameterUnit":"m.s-1","parameterCategory":1,"la1":30.2991,"la2":30.254,"lo1":-89.0895,"lo2":-89.0444,"dy":0.0017,"dx":0.0017,"nx":28,"ny":28,"refTime":"2024-04-14T03:00:00:Z","depth":0,"parameterNumber":3,"parameterNumberName":"V-component_of_WINDS"},"data":[0,0,0,0,0,0,0,0,0,0,0,0,0,0,0,0,0,0,0,0,0,0,0,0,0,0,0,0,0,0,0,0,0,0,0,0,0,0,0,0,0,0,0,0,0,0,0,0,0,0,0,0,0,0,0,0,0,0,3.5877,3.5877,0,3.5892,3.5892,3.5892,3.5868,3.5867,3.5866,3.5865,3.5879,3.5881,3.5882,0,0,0,0,0,0,0,0,0,0,0,0,0,3.5824,3.5825,3.5877,3.5877,3.5877,3.5892,3.5892,3.5892,3.5868,3.5867,3.5866,3.5865,3.5879,3.588,3.5882,0,0,0,0,0,0,0,0,0,0,0,0,0,3.5844,3.5825,3.5877,3.5867,3.5866,3.5892,3.5892,3.5893,3.5868,3.5867,3.5865,3.5864,3.5879,3.588,3.5882,3.5918,0,0,3.5887,3.5888,0,0,0,0,0,0,0,0,3.5843,3.5846,3.5868,3.5867,3.5867,3.5877,3.5879,3.5901,3.5868,3.5867,3.5865,3.5864,3.5879,3.5881,3.5887,3.5919,3.592,3.5888,3.5889,3.5889,3.589,0,0,0,0,0,0,0,3.5841,3.5845,3.5883,3.5868,3.5867,3.5861,3.5862,3.5883,3.588,3.5867,3.5865,3.5868,3.5879,3.5885,3.5887,3.592,3.5888,3.5889,3.589,3.5891,3.5983,3.5984,0,0,0,0,0,0,3.5841,3.5844,3.5882,3.5883,3.5851,3.5863,3.5864,3.5875,3.588,3.588,3.5869,3.5866,3.5883,3.5885,3.5887,3.593,3.5889,3.5891,3.5892,3.5981,3.5983,3.5984,0,0,0,0,0,0,3.584,3.5845,3.5882,3.5863,3.5867,3.5865,3.5877,3.5876,3.5882,3.5881,3.588,3.5876,3.5882,3.5885,3.5911,3.5931,3.5892,3.5893,3.598,3.5982,3.5984,3.6017,0,0,0,0,0,0,3.5839,3.5845,3.5859,3.5864,3.5868,3.5906,3.5878,3.5877,3.5885,3.5882,3.5888,3.5887,3.5881,3.5908,3.5913,3.5932,3.5895,3.5978,3.598,3.5983,3.6014,3.602,3.6025,0,0,0,0,0,3.5837,3.5868,3.586,3.5865,3.5886,3.5907,3.591,3.5902,3.5887,3.5901,3.59,3.5887,3.5927,3.5911,3.5916,3.5936,3.5977,3.598,3.5983,3.6012,3.6019,3.6025,0,0,0,0,0,0,3.5865,3.5868,3.586,3.5893,3.59,3.5903,3.592,3.591,3.5921,3.5918,3.5908,3.5909,3.5938,3.5939,3.5921,3.5972,3.5949,3.5954,3.597,3.5977,3.5982,3.5981,3.5896,0,0,0,0,0,3.5876,3.5893,3.5894,3.5923,3.5927,3.5923,3.5932,3.5925,3.5932,3.5935,3.5936,3.5943,3.5957,3.5967,3.598,3.6014,3.6015,3.603,3.6035,3.604,3.6044,3.6062,3.6069,3.5995,3.5994,3.5994,0,0,3.5897,3.59,3.5912,3.5929,3.5933,3.5951,3.5926,3.5945,3.5958,3.5938,3.5963,3.5964,3.597,3.6001,3.6014,3.6003,3.6064,3.6044,3.6047,3.6049,3.6066,3.6073,3.6079,3.5997,3.5996,3.5996,0,0,3.5944,3.5949,3.5973,3.5979,3.5986,3.5983,3.5989,3.5993,3.5993,3.6018,3.6004,3.6018,3.6043,3.6048,3.6054,3.6103,3.6091,3.6107,3.6136,3.6153,3.6159,3.6164,3.6182,3.6189,3.6111,3.6111,3.6111,0,3.597,3.5996,3.5987,3.6008,3.6016,3.5998,3.6023,3.6028,3.6039,3.6045,3.6032,3.6062,3.6066,3.6097,3.6109,3.6114,3.612,3.6107,3.6159,3.6164,3.6169,3.6186,3.6193,3.6113,3.6112,3.6112,3.6112,0,3.6027,3.6045,3.6064,3.6076,3.6085,3.6108,3.6102,3.6113,3.6105,3.6103,3.6129,3.6132,3.6145,3.6152,3.6144,3.6182,3.6175,3.6161,3.6139,3.6178,3.6194,3.62,3.6116,3.6115,3.6114,3.6114,0,0,3.6094,3.61,3.6108,3.6113,3.6119,3.6133,3.6154,3.6167,3.6177,3.6184,3.6202,3.6223,3.621,3.6217,3.6209,3.6225,3.6264,3.6209,3.6209,3.622,3.6306,3.6317,3.6325,3.6255,3.6257,3.6257,3.6305,0,3.6142,3.618,3.6172,3.6209,3.6226,3.6208,3.6227,3.6232,3.6231,3.6244,3.6242,3.6258,3.6239,3.6243,3.6257,3.6256,3.6281,3.6252,3.6272,3.6273,3.6272,3.6333,3.6345,3.6391,3.6311,3.6313,3.6313,0,3.6204,3.6215,3.6253,3.6257,3.6263,3.628,3.6291,3.6304,3.631,3.6308,3.6315,3.6305,3.6325,3.6302,3.633,3.631,3.6318,3.6318,3.632,3.6322,3.6296,3.6338,3.6405,3.6412,3.6323,3.6322,3.6321,0,3.6251,3.6274,3.63,3.6305,3.6309,3.6321,3.6324,3.6328,3.6336,3.6346,3.6351,3.6363,3.6369,3.6378,3.6371,3.6355,3.6401,3.6376,3.6399,3.64,3.6411,3.6411,3.6481,3.6414,3.6414,3.6414,3.6414,0,3.6306,3.633,3.6321,3.6337,3.6364,3.6354,3.638,3.638,3.6384,3.64,3.6385,3.6399,3.6389,3.6402,3.6397,3.6421,3.6424,3.6422,3.6421,3.6425,3.6425,3.643,3.6427,3.6415,3.6415,3.6415,3.6414,0,3.6363,3.6358,3.6385,3.6387,3.6388,3.6407,3.6408,3.6423,3.642,3.644,3.6444,3.6439,3.6454,3.6447,3.6463,3.6459,3.6491,3.6485,3.649,3.6488,3.6512,3.651,3.6589,3.6599,3.6525,3.6525,3.6526,0,3.64,3.6418,3.6421,3.6431,3.6434,3.645,3.6458,3.6448,3.6457,3.6465,3.6479,3.6492,3.6503,3.6528,3.6526,3.6538,3.6532,3.6559,3.6534,3.6537,3.6534,3.6533,3.6535,3.6564,3.6565,3.6566,3.6567,0,3.6465,3.6461,3.6474,3.6486,3.6496,3.6505,3.6513,3.6521,3.6511,3.6522,3.6538,3.6546,3.6562,3.6576,3.6587,3.6588,3.6576,3.6574,3.658,3.6585,3.6587,3.6587,3.6504,3.6573,3.6572,3.6572,3.6571,3.6571,3.6514,3.6529,3.6534,3.6549,3.6553,3.656,3.6574,3.6572,3.6585,3.6598,3.6591,3.6609,3.6613,3.6626,3.6629,3.6643,3.6632,3.6641,3.6643,3.6646,3.665,3.6584,3.6644,3.6644,3.6644,3.6644,3.6644,0,3.6579,3.6581,3.6594,3.6605,3.6617,3.6603,3.6611,3.6621,3.6637,3.6642,3.6653,3.667,3.6684,3.6682,3.6694,3.6705,3.67,3.6709,3.6709,3.6709,3.6658,3.6652,3.6713,3.6713,3.6713,3.6713,3.6713,3.6713,3.6615,3.664,3.6637,3.6664,3.6665,3.6683,3.6689,3.6695,3.6699,3.6719,3.673,3.6729,3.6731,3.6743,3.6754,3.6753,3.6759,3.677,3.6767,3.672,3.6713,3.6706,3.6701,3.6771,3.6771,3.6818,3.6818,3.6818]}]]